�������l�o���
Date,Time,MP-1(��Sv/h),MP-2(��Sv/h),MP-3(��Sv/h),MP-4(��Sv/h),MP-5(��Sv/h),MP-6(��Sv/h),MP-7(��Sv/h),MP-8(��Sv/h),����,����(m/s),���J
2021/10/26,00:00,0.582,0.873,0.557,1.066,0.754,0.357,0.614,0.580,�k�k��,7.8,�L
2021/10/26,00:10,0.582,0.874,0.557,1.067,0.754,0.357,0.617,0.583,�k�k��,7.9,�L
2021/10/26,00:20,0.585,0.871,0.557,1.066,0.755,0.357,0.616,0.581,�k�k��,8.0,�L
2021/10/26,00:30,0.585,0.872,0.557,1.066,0.754,0.356,0.617,0.581,�k�k��,7.2,�L
2021/10/26,00:40,0.583,0.873,0.557,1.065,0.753,0.355,0.616,0.581,�k�k��,7.6,�L
2021/10/26,00:50,0.584,0.873,0.558,1.065,0.754,0.356,0.616,0.580,�k�k��,7.3,�L
2021/10/26,01:00,0.582,0.872,0.559,1.064,0.754,0.357,0.616,0.582,�k�k��,7.2,��
2021/10/26,01:10,0.583,0.872,0.556,1.067,0.755,0.357,0.616,0.582,�k�k��,7.6,�L
2021/10/26,01:20,0.583,0.872,0.556,1.065,0.754,0.357,0.618,0.581,�k�k��,8.6,�L
2021/10/26,01:30,0.584,0.870,0.557,1.066,0.755,0.358,0.618,0.581,�k�k��,8.8,�L
2021/10/26,01:40,0.583,0.869,0.557,1.065,0.752,0.356,0.616,0.581,�k�k��,8.6,�L
2021/10/26,01:50,0.583,0.871,0.556,1.065,0.753,0.357,0.615,0.580,�k�k��,8.6,�L
2021/10/26,02:00,0.583,0.867,0.557,1.063,0.749,0.357,0.615,0.578,�k�k��,9.1,�L
2021/10/26,02:10,0.582,0.867,0.557,1.065,0.747,0.357,0.614,0.576,�k�k��,7.9,�L
2021/10/26,02:20,0.582,0.866,0.555,1.061,0.745,0.357,0.615,0.576,�k�k��,8.5,�L
2021/10/26,02:30,0.581,0.864,0.556,1.061,0.744,0.356,0.614,0.575,�k�k��,8.2,�L
2021/10/26,02:40,0.580,0.862,0.554,1.059,0.743,0.357,0.613,0.575,�k�k��,9.2,�L
2021/10/26,02:50,0.580,0.860,0.555,1.060,0.743,0.355,0.611,0.573,�k�k��,8.4,�L
2021/10/26,03:00,0.582,0.859,0.552,1.058,0.740,0.356,0.611,0.574,�k�k��,10.0,�L
2021/10/26,03:10,0.575,0.845,0.545,1.042,0.728,0.353,0.608,0.572,�k�k��,9.0,�L
2021/10/26,03:20,0.571,0.840,0.546,1.031,0.725,0.352,0.605,0.568,�k,9.5,�L
2021/10/26,03:30,0.565,0.832,0.544,1.018,0.711,0.351,0.601,0.563,���k��,5.6,�L
2021/10/26,03:40,0.568,0.832,0.543,1.013,0.709,0.352,0.598,0.564,-,CALM,�L
2021/10/26,03:50,0.565,0.828,0.540,1.010,0.708,0.350,0.599,0.563,-,CALM,�L
2021/10/26,04:00,0.563,0.827,0.541,1.004,0.705,0.348,0.598,0.563,�k��,10.6,�L
2021/10/26,04:10,0.560,0.823,0.537,1.001,0.705,0.350,0.597,0.564,���k��,12.1,�L
2021/10/26,04:20,0.563,0.819,0.538,1.001,0.705,0.350,0.598,0.563,�k��,7.9,�L
2021/10/26,04:30,0.561,0.820,0.537,1.000,0.703,0.350,0.597,0.564,-,CALM,�L
2021/10/26,04:40,0.561,0.821,0.538,0.999,0.701,0.350,0.595,0.563,�k��,7.8,�L
2021/10/26,04:50,0.559,0.820,0.536,0.998,0.700,0.351,0.592,0.561,��,7.9,�L
2021/10/26,05:00,0.553,0.812,0.535,0.991,0.692,0.345,0.590,0.559,�k��,6.9,�L
2021/10/26,05:10,0.555,0.816,0.534,0.987,0.690,0.348,0.591,0.556,�k�k��,6.7,�L
2021/10/26,05:20,0.558,0.817,0.534,0.993,0.693,0.349,0.593,0.562,�k�k��,6.5,�L
2021/10/26,05:30,0.556,0.816,0.532,0.988,0.690,0.346,0.588,0.554,-,CALM,�L
2021/10/26,05:40,0.552,0.808,0.527,0.974,0.680,0.346,0.587,0.553,�k�k��,9.5,�L
2021/10/26,05:50,0.553,0.813,0.531,0.983,0.686,0.347,0.589,0.555,�k�k��,7.1,�L
2021/10/26,06:00,0.555,0.812,0.532,0.986,0.686,0.349,0.592,0.557,�k,5.0,�L
2021/10/26,06:10,0.555,0.816,0.534,0.988,0.687,0.349,0.591,0.558,�k,5.5,�L
2021/10/26,06:20,0.554,0.813,0.532,0.989,0.687,0.349,0.592,0.560,�k,5.0,�L
2021/10/26,06:30,0.556,0.815,0.531,0.987,0.682,0.349,0.590,0.559,�k�k��,6.2,�L
2021/10/26,06:40,0.552,0.810,0.530,0.979,0.674,0.345,0.591,0.559,�k�k��,6.0,�L
2021/10/26,06:50,0.547,0.808,0.529,0.986,0.682,0.349,0.593,0.560,�k��,6.5,�L
2021/10/26,07:00,0.546,0.805,0.527,0.981,0.684,0.347,0.591,0.562,�k�k��,8.7,�L
2021/10/26,07:10,0.550,0.804,0.526,0.978,0.679,0.346,0.591,0.557,�k�k��,5.3,�L
2021/10/26,07:20,0.547,0.805,0.525,0.976,0.676,0.344,0.591,0.556,�k�k��,10.3,�L
2021/10/26,07:30,0.547,0.806,0.526,0.979,0.677,0.346,0.591,0.559,�k�k��,7.6,�L
2021/10/26,07:40,0.551,0.807,0.527,0.980,0.673,0.344,0.591,0.556,�k�k��,4.9,�L
2021/10/26,07:50,0.550,0.804,0.527,0.979,0.672,0.346,0.590,0.556,�k�k��,7.3,�L
2021/10/26,08:00,0.552,0.811,0.528,0.981,0.675,0.347,0.593,0.558,�k�k��,7.8,�L
2021/10/26,08:10,0.553,0.813,0.528,0.986,0.677,0.346,0.593,0.558,�k�k��,8.4,�L
2021/10/26,08:20,0.556,0.811,0.529,0.988,0.679,0.347,0.593,0.558,�k�k��,8.2,�L
2021/10/26,08:30,0.554,0.812,0.529,0.989,0.679,0.347,0.593,0.558,�k,8.1,�L
2021/10/26,08:40,0.554,0.814,0.529,0.989,0.681,0.346,0.593,0.560,�k,6.7,�L
2021/10/26,08:50,0.553,0.811,0.531,0.992,0.679,0.346,0.595,0.558,�k,5.9,�L
2021/10/26,09:00,0.541,0.799,0.522,0.976,0.670,0.344,0.590,0.555,�k�k��,6.4,�L
2021/10/26,09:10,0.544,0.797,0.522,0.970,0.664,0.342,0.587,0.552,�k,5.8,�L
2021/10/26,09:20,0.547,0.802,0.522,0.972,0.662,0.346,0.588,0.552,�k��,8.0,�L
2021/10/26,09:30,0.552,0.807,0.526,0.979,0.665,0.346,0.589,0.556,�k��,11.9,�L
2021/10/26,09:40,0.554,0.813,0.528,0.985,0.667,0.348,0.592,0.557,�k��,12.4,�L
2021/10/26,09:50,0.554,0.812,0.529,0.988,0.667,0.347,0.590,0.557,�k��,14.2,�L
2021/10/26,10:00,0.554,0.812,0.528,0.987,0.667,0.347,0.593,0.559,�k�k��,14.6,�L
2021/10/26,10:10,0.551,0.808,0.529,0.989,0.668,0.347,0.592,0.561,�k�k��,14.4,�L
2021/10/26,10:20,0.553,0.813,0.527,0.990,0.668,0.347,0.593,0.558,�k�k��,12.4,�L
2021/10/26,10:30,0.555,0.811,0.529,0.992,0.669,0.346,0.592,0.560,�k��,14.1,�L
2021/10/26,10:40,0.555,0.814,0.529,0.994,0.669,0.346,0.593,0.560,�k��,15.2,�L
2021/10/26,10:50,0.559,0.814,0.529,0.994,0.671,0.346,0.594,0.562,�k��,12.4,�L
2021/10/26,11:00,0.558,0.818,0.530,0.999,0.672,0.348,0.595,0.560,�k�k��,13.5,�L
2021/10/26,11:10,0.559,0.819,0.532,1.000,0.675,0.347,0.594,0.564,�k�k��,12.7,�L
2021/10/26,11:20,0.562,0.822,0.531,1.003,0.674,0.348,0.595,0.563,�k�k��,13.3,�L
2021/10/26,11:30,0.560,0.823,0.531,1.005,0.676,0.347,0.594,0.563,�k�k��,15.2,�L
2021/10/26,11:40,0.562,0.823,0.532,1.004,0.677,0.349,0.595,0.564,�k�k��,14.1,�L
2021/10/26,11:50,0.561,0.825,0.532,1.006,0.679,0.348,0.596,0.564,�k�k��,13.8,�L
2021/10/26,12:00,0.562,0.826,0.533,1.007,0.680,0.347,0.595,0.562,�k�k��,13.6,�L
2021/10/26,12:10,0.561,0.826,0.534,1.009,0.678,0.347,0.596,0.564,�k�k��,13.6,�L
2021/10/26,12:20,0.562,0.826,0.533,1.009,0.680,0.347,0.596,0.565,�k�k��,14.2,�L
2021/10/26,12:30,0.561,0.829,0.532,1.012,0.681,0.347,0.596,0.563,�k�k��,15.2,�L
2021/10/26,12:40,0.562,0.829,0.533,1.012,0.682,0.348,0.597,0.565,�k�k��,13.9,�L
2021/10/26,12:50,0.562,0.827,0.534,1.014,0.685,0.347,0.597,0.563,�k�k��,13.5,�L
2021/10/26,13:00,0.562,0.830,0.533,1.013,0.684,0.347,0.597,0.565,�k�k��,13.3,�L
2021/10/26,13:10,0.562,0.829,0.533,1.015,0.684,0.346,0.597,0.566,�k�k��,13.8,�L
2021/10/26,13:20,0.561,0.829,0.535,1.015,0.685,0.347,0.597,0.566,�k�k��,13.0,�L
2021/10/26,13:30,0.563,0.826,0.531,1.017,0.688,0.345,0.597,0.567,�k�k��,12.4,�L
2021/10/26,13:40,0.563,0.830,0.531,1.016,0.688,0.348,0.597,0.565,�k�k��,13.1,�L
2021/10/26,13:50,0.562,0.829,0.533,1.019,0.687,0.347,0.597,0.567,�k,10.9,�L
2021/10/26,14:00,0.564,0.831,0.532,1.019,0.688,0.346,0.599,0.566,�k,12.4,�L
2021/10/26,14:10,0.560,0.829,0.531,1.018,0.689,0.348,0.597,0.565,�k,14.4,�L
2021/10/26,14:20,0.562,0.827,0.531,1.018,0.687,0.347,0.597,0.565,�k,13.0,�L
2021/10/26,14:30,0.561,0.827,0.533,1.016,0.689,0.347,0.598,0.565,�k,10.5,�L
2021/10/26,14:40,0.564,0.828,0.531,1.017,0.689,0.349,0.598,0.565,�k,9.8,�L
2021/10/26,14:50,0.562,0.830,0.534,1.018,0.687,0.347,0.598,0.566,�k,8.7,�L
2021/10/26,15:00,0.563,0.830,0.534,1.019,0.688,0.347,0.598,0.566,�k�k��,8.6,�L
2021/10/26,15:10,0.562,0.830,0.534,1.020,0.688,0.348,0.599,0.566,�k,8.4,�L
2021/10/26,15:20,0.563,0.828,0.535,1.022,0.690,0.348,0.598,0.567,�k�k��,8.6,�L
2021/10/26,15:30,0.562,0.831,0.536,1.020,0.690,0.347,0.598,0.565,�k�k��,9.6,�L
2021/10/26,15:40,0.563,0.832,0.535,1.021,0.691,0.348,0.598,0.567,�k�k��,7.4,�L
2021/10/26,15:50,0.563,0.833,0.535,1.021,0.691,0.347,0.599,0.567,�k�k��,8.8,�L
2021/10/26,16:00,0.563,0.832,0.534,1.020,0.691,0.347,0.599,0.565,�k�k��,8.4,��
2021/10/26,16:10,0.562,0.834,0.535,1.022,0.693,0.350,0.600,0.566,�k�k��,8.2,�L
2021/10/26,16:20,0.564,0.834,0.534,1.023,0.693,0.348,0.598,0.567,�k�k��,8.2,�L
2021/10/26,16:30,0.563,0.835,0.535,1.022,0.695,0.349,0.599,0.570,�k�k��,7.8,��
2021/10/26,16:40,0.564,0.833,0.535,1.021,0.694,0.348,0.600,0.568,�k�k��,9.6,��
2021/10/26,16:50,0.564,0.836,0.535,1.023,0.695,0.349,0.600,0.569,�k�k��,7.4,��
2021/10/26,17:00,0.563,0.834,0.536,1.024,0.695,0.348,0.600,0.570,�k�k��,6.9,��
2021/10/26,17:10,0.564,0.836,0.535,1.024,0.694,0.348,0.601,0.569,�k�k��,7.4,��
2021/10/26,17:20,0.565,0.836,0.535,1.025,0.695,0.348,0.602,0.570,�k��,8.0,��
2021/10/26,17:30,0.566,0.837,0.534,1.024,0.695,0.350,0.601,0.570,�k��,8.2,��
2021/10/26,17:40,0.564,0.838,0.537,1.025,0.696,0.349,0.603,0.571,�k��,6.5,��
2021/10/26,17:50,0.565,0.838,0.536,1.024,0.696,0.350,0.600,0.571,�k�k��,7.8,��
2021/10/26,18:00,0.566,0.838,0.537,1.024,0.698,0.349,0.601,0.571,�k�k��,6.5,��
2021/10/26,18:10,0.565,0.839,0.538,1.025,0.699,0.350,0.602,0.570,�k�k��,6.7,��
2021/10/26,18:20,0.564,0.840,0.533,1.024,0.699,0.348,0.602,0.570,�k��,5.7,��
2021/10/26,18:30,0.562,0.838,0.535,1.024,0.700,0.349,0.601,0.570,�k�k��,5.7,��
2021/10/26,18:40,0.565,0.837,0.536,1.025,0.699,0.349,0.602,0.570,�k�k��,5.1,��
2021/10/26,18:50,0.565,0.839,0.535,1.026,0.702,0.350,0.602,0.571,�k��,5.3,��
2021/10/26,19:00,0.565,0.839,0.535,1.024,0.700,0.349,0.602,0.570,�k��,5.1,��
2021/10/26,19:10,0.563,0.839,0.534,1.027,0.701,0.349,0.602,0.570,�k��,5.2,��
2021/10/26,19:20,0.564,0.838,0.534,1.024,0.701,0.350,0.603,0.570,�k��,6.3,��
2021/10/26,19:30,0.563,0.838,0.536,1.028,0.701,0.349,0.604,0.570,�k��,6.7,��
2021/10/26,19:40,0.564,0.837,0.536,1.026,0.701,0.349,0.603,0.571,�k��,6.8,��
2021/10/26,19:50,0.566,0.839,0.534,1.026,0.699,0.349,0.604,0.569,�k��,6.1,��
2021/10/26,20:00,0.563,0.839,0.534,1.025,0.701,0.349,0.605,0.570,�k��,6.1,��
2021/10/26,20:10,0.565,0.839,0.534,1.026,0.704,0.350,0.605,0.569,�k��,6.2,��
2021/10/26,20:20,0.565,0.838,0.536,1.028,0.702,0.349,0.603,0.569,�k��,6.4,��
2021/10/26,20:30,0.565,0.840,0.536,1.026,0.703,0.349,0.604,0.569,�k��,5.5,��
2021/10/26,20:40,0.565,0.841,0.536,1.025,0.701,0.350,0.603,0.570,�k��,4.9,��
2021/10/26,20:50,0.566,0.838,0.536,1.027,0.700,0.349,0.606,0.568,���k��,4.4,��
2021/10/26,21:00,0.565,0.838,0.535,1.028,0.702,0.349,0.605,0.569,���k��,4.3,��
2021/10/26,21:10,0.565,0.840,0.535,1.029,0.704,0.349,0.605,0.570,���k��,4.6,��
2021/10/26,21:20,0.565,0.840,0.535,1.028,0.702,0.350,0.604,0.569,�k��,4.8,��
2021/10/26,21:30,0.566,0.841,0.536,1.027,0.705,0.349,0.604,0.570,���k��,4.8,��
2021/10/26,21:40,0.565,0.841,0.535,1.029,0.704,0.349,0.605,0.569,�k��,4.4,��
2021/10/26,21:50,0.566,0.839,0.535,1.028,0.703,0.350,0.605,0.569,�k��,3.7,��
2021/10/26,22:00,0.565,0.839,0.537,1.027,0.704,0.348,0.604,0.569,�k��,4.0,��
2021/10/26,22:10,0.566,0.841,0.536,1.029,0.704,0.348,0.605,0.570,�k��,3.7,��
2021/10/26,22:20,0.565,0.840,0.535,1.027,0.705,0.348,0.605,0.569,�k��,3.1,��
2021/10/26,22:30,0.565,0.841,0.534,1.031,0.704,0.349,0.605,0.570,�k��,2.9,��
2021/10/26,22:40,0.566,0.841,0.534,1.030,0.706,0.349,0.606,0.569,���k��,2.2,��
2021/10/26,22:50,0.564,0.841,0.535,1.028,0.704,0.349,0.606,0.570,���k��,2.9,��
2021/10/26,23:00,0.566,0.840,0.535,1.029,0.705,0.348,0.605,0.569,�k��,3.5,��
2021/10/26,23:10,0.564,0.840,0.535,1.031,0.705,0.349,0.605,0.570,�k��,3.4,��
2021/10/26,23:20,0.565,0.839,0.535,1.029,0.706,0.350,0.603,0.568,�k��,2.0,��
2021/10/26,23:30,0.565,0.841,0.536,1.028,0.705,0.350,0.603,0.569,�쐼,1.4,��
2021/10/26,23:40,0.565,0.841,0.536,1.028,0.706,0.350,0.605,0.571,��쐼,1.2,��
2021/10/26,23:50,0.564,0.841,0.538,1.030,0.706,0.348,0.605,0.570,��쓌,1.7,��
